Weather History for Sisseton, SD

Change the Weather History Date:

Sunday, September 21, 2014

  Actual Average Record
Temperature  
Mean Temperature 58 °F 58 °F  
Max Temperature 70 °F 70 °F 97 °F (1937)
Min Temperature 45 °F 45 °F 22 °F (1934)
Degree Days  
Heating Degree Days 7 8  
Month to date heating degree days 132 111  
Since 1 July heating degree days 169 154  
Cooling Degree Days 0 1  
Month to date cooling degree days 28 40  
Year to date cooling degree days 428 519  
Growing Degree Days 8 (Base 50)    
Moisture  
Dew Point 48 °F    
Average Humidity 72    
Maximum Humidity 100    
Minimum Humidity 44    
Precipitation  
Precipitation 0.00 in 0.08 in 1.83 in (1989)
Month to date precipitation 0.59 1.73  
Year to date precipitation 21.55 18.47  
Sea Level Pressure  
Sea Level Pressure 30.16 in    
Wind  
Wind Speed 9 mph (NNW)    
Max Wind Speed 18 mph    
Max Gust Speed 25 mph    
T = Trace of Precipitation, MM = Missing Value Source: NWS Daily Summary

Daily Weather History Graph

Daily Weather History Graph

Search for Another Location

Airport:

Trip Planner

Search our weather history database for the weather conditions in past years. The results will help you decide how hot, cold, wet, or windy it might be!

Date:

Astronomy

Sep. 21, 2014 Rise Set
Actual Time 7:13 AM CDT 7:27 PM CDT
Civil Twilight 6:44 AM CDT 7:57 PM CDT
Nautical Twilight 6:09 AM CDT 8:31 PM CDT
Astronomical Twilight 5:33 AM CDT 9:07 PM CDT
Moon 4:42 AM CDT (9/21) 6:08 PM CDT (9/21)
Length of Visible Light 13h 12m
Length of Day
12h 13m
Waning Crescent, 6% of the Moon is Illuminated
Sep 21
Waning Crescent
Sep 24
New
Oct 1
First Quarter
Oct 8
Full
Oct 15
Last Quarter

Hourly Weather History & Observations

Time (CDT) Temp. Windchill Dew Point Humidity Pressure Visibility Wind Dir Wind Speed Gust Speed Precip Events Conditions
12:56 AM 59.0 °F - 45.0 °F 60% 29.96 in - NNW 13.8 mph - N/A   Unknown
1:56 AM 55.9 °F - 46.0 °F 69% 29.99 in - North 13.8 mph - N/A   Unknown
2:56 AM 52.0 °F - 46.9 °F 83% 30.03 in - NNW 9.2 mph - N/A   Unknown
3:56 AM 52.0 °F - 48.0 °F 86% 30.04 in - NNW 10.4 mph - N/A   Unknown
4:56 AM 51.1 °F - 48.0 °F 89% 30.06 in - NNW 10.4 mph - N/A   Unknown
5:56 AM 48.9 °F - 46.9 °F 93% 30.09 in - North 9.2 mph - N/A   Unknown
6:56 AM 46.9 °F - 46.0 °F 97% 30.13 in - NNW 6.9 mph - N/A   Unknown
7:56 AM 51.1 °F - 48.0 °F 89% 30.16 in - NNW 10.4 mph - N/A   Unknown
8:56 AM 55.0 °F - 50.0 °F 83% 30.17 in - North 12.7 mph - N/A   Unknown
9:56 AM 57.9 °F - 51.1 °F 78% 30.20 in - North 12.7 mph - N/A   Unknown
10:56 AM 61.0 °F - 51.1 °F 70% 30.20 in - NNW 15.0 mph 20.7 mph N/A   Unknown
11:56 AM 64.0 °F - 51.1 °F 63% 30.21 in - North 11.5 mph 20.7 mph N/A   Unknown
12:56 PM 66.9 °F - 50.0 °F 54% 30.21 in - North 15.0 mph 20.7 mph N/A   Unknown
1:56 PM 68.0 °F - 48.9 °F 50% 30.20 in - NNW 13.8 mph - N/A   Unknown
2:56 PM 69.1 °F - 48.9 °F 49% 30.20 in - North 12.7 mph - N/A   Unknown
3:56 PM 69.1 °F - 48.0 °F 47% 30.19 in - NNE 13.8 mph 19.6 mph N/A   Unknown
4:56 PM 69.1 °F - 46.9 °F 45% 30.20 in - North 11.5 mph - N/A   Unknown
5:56 PM 68.0 °F - 48.0 °F 49% 30.20 in - North 9.2 mph - N/A   Unknown
6:56 PM 64.0 °F - 50.0 °F 60% 30.21 in - NNW 4.6 mph - N/A   Unknown
7:56 PM 52.0 °F - 50.0 °F 93% 30.22 in - Calm Calm - N/A   Unknown
8:56 PM 51.1 °F - 48.9 °F 92% 30.23 in - WSW 3.5 mph - N/A   Unknown
9:56 PM 48.0 °F - 46.9 °F 96% 30.24 in - Calm Calm - N/A   Unknown
10:56 PM 46.9 °F - 45.0 °F 93% 30.23 in - SSW 4.6 mph - N/A   Unknown
11:56 PM 46.0 °F 43.9 °F 45.0 °F 96% 30.22 in - SE 4.6 mph - N/A   Unknown